TimeCST,TemperatureF,Dew PointF,Humidity,Sea Level PressureIn,VisibilityMPH,Wind Direction,Wind SpeedMPH,Gust SpeedMPH,PrecipitationIn,Events,Conditions,WindDirDegrees,DateUTC
12:55 AM,44.2,41.0,88,30.23,10.0,Calm,Calm,-,N/A,,Overcast,0,2013-01-24 06:55:00
1:55 AM,46.9,41.7,82,30.22,10.0,WSW,3.5,-,N/A,,Overcast,240,2013-01-24 07:55:00
2:55 AM,48.6,42.8,80,30.22,10.0,WSW,6.9,-,N/A,,Mostly Cloudy,250,2013-01-24 08:55:00
3:55 AM,47.5,43.2,85,30.24,10.0,NNE,6.9,-,N/A,,Overcast,20,2013-01-24 09:55:00
4:16 AM,48.2,42.8,82,30.25,10.0,North,3.5,-,N/A,,Overcast,350,2013-01-24 10:16:00
4:17 AM,48.2,42.8,82,30.24,10.0,North,3.5,-,N/A,,Overcast,350,2013-01-24 10:17:00
4:19 AM,48.2,42.8,82,30.25,10.0,North,3.5,-,N/A,,Overcast,350,2013-01-24 10:19:00
4:44 AM,48.2,42.8,82,30.25,10.0,Calm,Calm,-,N/A,,Overcast,0,2013-01-24 10:44:00
4:51 AM,48.2,42.8,82,30.26,10.0,Calm,Calm,-,N/A,,Overcast,0,2013-01-24 10:51:00
4:55 AM,48.0,43.0,83,30.26,10.0,Calm,Calm,-,N/A,,Overcast,0,2013-01-24 10:55:00
5:46 AM,48.2,42.8,82,30.27,10.0,North,3.5,-,N/A,,Overcast,350,2013-01-24 11:46:00
5:55 AM,48.2,43.2,83,30.27,10.0,North,3.5,-,N/A,,Overcast,350,2013-01-24 11:55:00
6:11 AM,48.2,42.8,82,30.28,10.0,North,4.6,-,N/A,,Overcast,350,2013-01-24 12:11:00
6:24 AM,48.2,42.8,82,30.28,10.0,North,4.6,-,N/A,,Overcast,360,2013-01-24 12:24:00
6:55 AM,47.7,41.2,78,30.30,10.0,North,8.1,-,N/A,,Overcast,10,2013-01-24 12:55:00
7:55 AM,47.1,40.1,77,30.33,10.0,North,6.9,-,N/A,,Overcast,350,2013-01-24 13:55:00
8:55 AM,49.1,38.5,67,30.35,10.0,North,9.2,-,N/A,,Overcast,360,2013-01-24 14:55:00
9:55 AM,50.4,35.6,57,30.38,10.0,NNE,11.5,-,N/A,,Overcast,30,2013-01-24 15:55:00
10:55 AM,53.4,34.7,49,30.37,10.0,NE,9.2,17.3,N/A,,Partly Cloudy,40,2013-01-24 16:55:00
11:55 AM,54.1,34.9,48,30.35,10.0,NE,10.4,-,N/A,,Clear,40,2013-01-24 17:55:00
12:55 PM,55.6,33.4,43,30.32,10.0,ENE,9.2,-,N/A,,Clear,60,2013-01-24 18:55:00
1:55 PM,55.9,31.5,39,30.30,10.0,Variable,5.8,-,N/A,,Clear,0,2013-01-24 19:55:00
2:55 PM,54.1,24.8,32,30.30,10.0,NNE,9.2,-,N/A,,Overcast,20,2013-01-24 20:55:00
3:55 PM,53.2,25.9,35,30.30,10.0,NNE,5.8,-,N/A,,Overcast,20,2013-01-24 21:55:00
4:55 PM,52.5,26.8,37,30.31,10.0,NNE,5.8,-,N/A,,Overcast,20,2013-01-24 22:55:00
5:55 PM,50.2,26.8,40,30.30,10.0,NE,6.9,-,N/A,,Overcast,40,2013-01-24 23:55:00
6:55 PM,47.3,25.0,42,30.30,10.0,ENE,8.1,-,N/A,,Mostly Cloudy,70,2013-01-25 00:55:00
7:49 PM,46.4,24.8,43,30.30,10.0,ENE,8.1,-,N/A,,Overcast,70,2013-01-25 01:49:00
7:55 PM,46.9,24.4,41,30.30,10.0,ENE,6.9,-,N/A,,Overcast,60,2013-01-25 01:55:00
8:29 PM,46.4,24.8,43,30.29,10.0,East,6.9,-,N/A,,Mostly Cloudy,90,2013-01-25 02:29:00
8:55 PM,46.4,24.6,42,30.28,10.0,East,4.6,-,N/A,,Overcast,100,2013-01-25 02:55:00
8:56 PM,46.4,24.8,43,30.29,10.0,East,5.8,-,N/A,,Overcast,100,2013-01-25 02:56:00
9:15 PM,46.4,24.8,43,30.29,10.0,East,5.8,-,N/A,,Overcast,90,2013-01-25 03:15:00
9:26 PM,46.4,24.8,43,30.28,10.0,East,6.9,-,N/A,,Overcast,90,2013-01-25 03:26:00
9:55 PM,46.4,25.2,43,30.27,10.0,East,5.8,-,N/A,,Overcast,100,2013-01-25 03:55:00
10:27 PM,46.4,24.8,43,30.26,10.0,ESE,10.4,-,N/A,,Overcast,110,2013-01-25 04:27:00
10:41 PM,46.4,24.8,43,30.26,10.0,ESE,8.1,-,N/A,,Mostly Cloudy,120,2013-01-25 04:41:00
10:42 PM,46.4,24.8,43,30.26,10.0,ESE,6.9,-,N/A,,Mostly Cloudy,120,2013-01-25 04:42:00
10:52 PM,46.4,24.8,43,30.25,10.0,ESE,6.9,-,N/A,,Mostly Cloudy,120,2013-01-25 04:52:00
10:55 PM,45.3,25.5,46,30.25,10.0,ESE,8.1,-,N/A,,Mostly Cloudy,120,2013-01-25 04:55:00
10:56 PM,44.6,24.8,46,30.25,10.0,ESE,9.2,-,N/A,,Mostly Cloudy,120,2013-01-25 04:56:00
10:57 PM,44.6,24.8,46,30.25,10.0,ESE,9.2,-,N/A,,Mostly Cloudy,120,2013-01-25 04:57:00
11:22 PM,46.4,24.8,43,30.25,10.0,ESE,5.8,-,N/A,,Overcast,120,2013-01-25 05:22:00
11:42 PM,46.4,24.8,43,30.24,10.0,ESE,6.9,-,N/A,,Overcast,110,2013-01-25 05:42:00
11:55 PM,46.6,25.3,43,30.24,10.0,ESE,5.8,-,N/A,,Overcast,120,2013-01-25 05:55:00